#timestamp,LO_Frequency,Hit 
1503100815.5,286047002.1,N
1503100835.4,286047004.2,N
1503100855.2,286047002.1,N
1503100875.0,286047001.0,N
1503100875.9,286047001.0,N
1503100895.8,286046998.3,N
1503100915.6,286046997.6,N
1503100935.4,286046995.3,N
1503100955.2,286046998.7,N
1503100975.1,286046998.6,N
1503100976.0,286046998.6,N
1503100995.8,286047000.2,N
1503101015.6,286046998.4,N
1503101035.5,286047001.1,N
1503101055.3,286047000.0,N
1503101075.1,286046999.4,N
1503101095.9,286047000.8,N
1503101115.7,286046999.8,N
1503101135.5,286047005.5,N
1503101155.4,286047006.6,P
1503101175.2,286047007.6,N
1503101195.0,286047006.8,N
1503101195.9,286047006.8,N
1503101215.8,286047004.6,N
1503101235.6,286047007.6,P
1503101255.4,286047004.0,P
1503101275.3,286047000.3,N
1503101295.1,286047001.2,N
1503101315.8,286046995.0,N
1503101335.7,286046995.3,N
1503101355.5,286046996.2,N
1503101375.3,286046995.3,N
1503101395.2,286046995.4,N
1503101415.9,286046996.2,N
1503101435.7,286046995.1,N
1503101455.6,286046996.5,N
1503101475.4,286047000.8,N
1503101495.2,286046996.5,N
1503101515.0,286046998.7,N
1503101516.0,286046998.7,N
1503101535.8,286046996.6,N
1503101555.6,286046995.3,N
1503101575.4,286046994.9,N
1503101595.3,286046996.3,N
1503101615.1,286046996.4,N
1503101635.8,286046991.8,N
1503101655.7,286046994.1,N
1503101675.5,286046993.6,N
1503101695.3,286046991.9,N
1503101715.2,286046992.9,N
1503101735.9,286046992.8,N
1503101755.7,286046993.8,N
1503101775.6,286046995.7,N
1503101795.4,286046994.8,N
1503101815.2,286046993.4,N
1503101835.0,286046999.2,N
1503101835.9,286046999.2,N
1503101855.8,286046996.9,N
1503101875.6,286046997.0,N
1503101895.4,286046997.1,N
1503101915.3,286046995.4,N
1503101935.1,286046993.3,P
1503101955.8,286046997.0,N
1503101975.7,286046998.8,N
1503101995.5,286047000.8,N
1503102015.3,286047000.7,N
1503102035.2,286047001.7,N
1503102055.9,286047005.1,N
1503102075.7,286047003.3,N
1503102095.6,286047004.2,N
1503102115.4,286047005.7,N
1503102135.2,286047004.0,N
1503102155.1,286047003.9,N
1503102156.0,286047003.9,N
1503102175.8,286047002.8,N
1503102195.6,286046999.7,N
1503102215.5,286047000.2,N
1503102235.3,286047000.7,N
1503102255.1,286046997.1,N
1503102275.9,286047000.8,N
1503102295.7,286047000.4,N
1503102315.5,286047000.8,N
1503102335.3,286047000.6,N
1503102355.2,286046999.7,N
1503102375.0,286047002.8,N
1503102375.9,286047002.8,N
1503102395.7,286047004.0,N
1503102415.6,286047003.2,N
1503102435.4,286047004.4,N
1503102455.2,286047001.5,N
1503102475.1,286046999.9,N
1503102476.0,286046999.9,N
1503102495.8,286047000.2,N
1503102515.6,286047003.5,N
1503102535.5,286047000.4,N
1503102555.3,286046996.8,N
1503102575.1,286047000.3,N
1503102595.9,286047002.7,N
1503102615.7,286047005.2,N
1503102635.5,286047003.0,N
1503102655.3,286047005.6,N
1503102675.2,286047005.8,N
1503102695.0,286047004.6,N
1503102695.9,286047004.6,N
1503102715.7,286047004.9,N
1503102735.6,286047003.8,N
1503102755.4,286047004.2,N
1503102775.2,286047003.1,N
1503102795.1,286047002.3,N
1503102796.0,286047002.3,N
1503102815.8,286047003.9,N
1503102835.6,286047003.7,N
1503102855.5,286047000.3,N
1503102875.3,286047001.8,N
1503102895.1,286047003.3,N
1503102915.3,286047001.3,N
1503102935.1,286047005.5,N
1503102936.0,286047005.5,N
1503102955.8,286047004.6,N
1503102975.7,286047005.5,N
1503102995.5,286047005.3,N
1503103015.3,286047006.0,N
1503103035.2,286047001.8,N
1503103055.9,286047001.7,N
1503103075.7,286047002.6,N
1503103095.6,286047002.6,N
1503103115.4,286047000.1,N
1503103135.2,286046999.7,N
1503103155.1,286047002.0,N
1503103156.0,286047002.0,N
1503103175.8,286047001.4,N
1503103195.6,286047000.4,N
1503103215.4,286047002.2,N
1503103235.3,286047000.9,N
1503103255.1,286046996.9,N
1503103275.8,286046996.7,N
1503103295.7,286046998.9,N
1503103315.5,286046999.4,N
1503103335.3,286046998.4,N
1503103355.2,286046997.0,N
1503103375.9,286047001.2,N
1503103395.7,286046999.7,N
1503103415.6,286047000.3,N
1503103435.4,286047002.8,N
1503103455.2,286047003.8,N
1503103475.1,286047004.3,N
1503103476.0,286047004.3,N
1503103495.8,286047002.6,N
1503103515.6,286047002.3,N
1503103535.5,286047003.9,N
1503103555.3,286047005.0,N
1503103575.1,286047004.5,N
1503103595.8,286047001.3,N
1503103615.7,286047000.3,N
1503103635.5,286047002.2,N
1503103655.3,286047003.2,N
1503103675.2,286047003.1,N
1503103695.9,286047003.2,N
1503103715.7,286047001.8,N
1503103735.6,286047000.8,N
1503103755.4,286047000.8,N
1503103775.2,286047001.2,N
1503103795.1,286047000.6,N
1503103796.0,286047000.6,N
1503103815.8,286047000.1,N
1503103835.6,286047001.3,N
1503103855.5,286047001.6,N
1503103875.3,286047001.9,N
1503103895.1,286047002.3,N
1503103915.8,286047004.3,N
1503103935.7,286047007.1,P
1503103955.5,286047005.3,N
1503103975.4,286047009.1,P
1503103995.2,286047006.9,N
1503104015.0,286047007.6,P
1503104015.9,286047007.6,P
1503104035.8,286047001.1,N
1503104055.6,286047000.3,N
1503104075.4,286047001.0,N
1503104095.2,286046997.2,N
1503104115.1,286046996.6,N
1503104116.0,286046996.6,N
1503104135.8,286046999.7,N
1503104155.6,286046998.5,N
1503104175.5,286047001.0,N
1503104195.3,286047001.1,N
1503104215.1,286047002.6,N
1503104235.9,286047001.0,N
1503104255.7,286047000.0,N
1503104275.5,286047001.7,N
1503104295.4,286047001.6,N
1503104315.2,286047000.9,N
1503104335.0,286046996.8,N
1503104335.9,286046996.8,N
1503104355.8,286046998.7,N
1503104375.6,286046999.9,N
1503104395.4,286047002.6,N
